Date String (YYYY-MM-DD hh:mm:ss) UTC,Instrument flags,Ambient pressure (hPa),Sample flow (lpm),Bypass flow (lpm),Sample temperature (°C),Ambient temperature (°C),ASC tube jacket temperature (°C),LED temperature (°C),Box temperature (°C),Sample RH (%),Span deviation,Mass concentration (μg/m³),Mass concentration (μg/m³),Mass concentration (μg/m³)
DateTimeUTC,F1_M11,P_M11,Q1_M11,Q2_M11,T1_M11,T2_M11,T3_M11,T4_M11,T5_M11,U1_M11,ZSPAN_M11,X0_M11,X2_M11,X1_M11
2022-06-22 20:00:00,,0832.0,5.00,0.00,29.0,27.9,00.0,37.7,31.0,16.9,0000.0,0023.30,0004.85,0003.18
2022-06-22 20:01:00,,0832.0,4.99,0.00,29.0,28.0,00.0,37.7,31.0,16.8,0000.0,0023.53,0004.82,0003.18
2022-06-22 20:02:00,,0831.9,5.01,0.00,29.1,28.1,00.0,37.8,31.1,16.6,0000.0,0022.76,0004.79,0003.18
2022-06-22 20:03:00,,0831.9,5.00,0.00,29.1,28.3,00.0,37.8,31.1,16.5,0000.0,0021.82,0004.83,0003.19
2022-06-22 20:04:00,,0831.9,4.99,0.00,29.1,28.1,00.0,37.8,31.1,16.5,0000.0,0019.83,0004.92,0003.20
2022-06-22 20:05:00,,0831.8,4.99,0.00,29.1,27.4,00.0,37.7,30.9,16.6,0000.0,0019.75,0004.96,0003.20
2022-06-22 20:06:00,,0831.9,5.00,0.00,29.0,26.9,00.0,37.7,30.8,16.8,0000.0,0019.97,0004.97,0003.20
2022-06-22 20:07:00,,0831.8,5.00,0.00,29.0,26.8,00.0,37.7,30.7,16.6,0000.0,0020.06,0004.93,0003.19
2022-06-22 20:08:00,,0831.8,5.01,0.00,28.9,26.9,00.0,37.7,30.7,16.9,0000.0,0019.57,0004.93,0003.18
2022-06-22 20:09:00,,0831.8,5.00,0.00,28.9,27.1,00.0,37.7,30.7,16.9,0000.0,0018.70,0005.00,0003.19
2022-06-22 20:10:00,,0831.8,4.99,0.00,28.9,27.2,00.0,37.7,30.8,16.9,0000.0,0016.54,0004.99,0003.19
2022-06-22 20:11:00,,0831.7,5.01,0.00,28.9,27.4,00.0,37.7,30.8,17.1,0000.0,0015.27,0004.91,0003.19
2022-06-22 20:12:00,,0831.7,5.00,0.00,28.9,27.6,00.0,37.7,30.9,16.9,0000.0,0015.27,0004.93,0003.20
2022-06-22 20:13:00,,0831.7,5.01,0.00,29.0,27.7,00.0,37.7,30.9,16.8,0000.0,0015.99,0004.97,0003.19
2022-06-22 20:14:00,,0831.7,5.00,0.00,29.0,27.9,00.0,37.7,31.0,17.2,0000.0,0016.28,0004.96,0003.19
2022-06-22 20:15:00,,0831.7,4.99,0.00,29.0,28.0,00.0,37.7,31.0,16.9,0000.0,0018.05,0004.95,0003.19
2022-06-22 20:16:00,,0831.7,5.01,0.00,29.1,28.1,00.0,37.8,31.1,17.0,0000.0,0019.03,0004.99,0003.20
2022-06-22 20:17:00,,0831.7,5.01,0.00,29.1,28.3,00.0,37.8,31.1,16.8,0000.0,0018.40,0004.99,0003.21
2022-06-22 20:18:00,,0831.7,4.99,0.00,29.1,28.3,00.0,37.8,31.1,16.9,0000.0,0018.12,0004.99,0003.20
2022-06-22 20:19:00,,0831.7,5.00,0.00,29.1,27.7,00.0,37.8,31.0,16.9,0000.0,0017.84,0005.00,0003.21
2022-06-22 20:20:00,,0831.7,5.00,0.00,29.1,27.0,00.0,37.7,30.8,17.1,0000.0,0018.22,0004.96,0003.21
2022-06-22 20:21:00,,0831.7,5.01,0.00,29.0,26.8,00.0,37.7,30.7,16.8,0000.0,0019.27,0004.93,0003.20
2022-06-22 20:22:00,,0831.7,5.00,0.00,28.9,26.9,00.0,37.7,30.7,17.0,0000.0,0019.85,0004.98,0003.21
2022-06-22 20:23:00,,0831.7,5.01,0.00,28.9,27.0,00.0,37.7,30.7,16.9,0000.0,0020.09,0005.07,0003.22
2022-06-22 20:24:00,,0831.7,5.00,0.00,28.9,27.2,00.0,37.7,30.8,17.3,0000.0,0019.93,0005.03,0003.22
2022-06-22 20:25:00,,0831.7,5.00,0.00,28.9,27.4,00.0,37.7,30.8,17.6,0000.0,0020.57,0005.05,0003.22
2022-06-22 20:26:00,,0831.7,4.98,0.00,28.9,27.5,00.0,37.7,30.9,17.2,0000.0,0019.23,0005.01,0003.22
2022-06-22 20:27:00,,0831.7,5.00,0.00,29.0,27.7,00.0,37.7,30.9,17.2,0000.0,0018.62,0004.95,0003.23
2022-06-22 20:28:00,,0831.7,5.01,0.00,29.0,27.8,00.0,37.7,31.0,17.0,0000.0,0019.29,0004.92,0003.23
2022-06-22 20:29:00,,0831.7,5.00,0.00,29.0,28.0,00.0,37.7,31.0,17.1,0000.0,0019.37,0004.89,0003.23
2022-06-22 20:30:00,,0831.6,4.99,0.00,29.1,28.1,00.0,37.8,31.1,17.5,0000.0,0020.15,0004.87,0003.23
2022-06-22 20:31:00,,0831.6,5.00,0.00,29.1,28.2,00.0,37.8,31.1,17.6,0000.0,0020.14,0004.85,0003.23
2022-06-22 20:32:00,,0831.6,5.01,0.00,29.1,28.3,00.0,37.8,31.1,17.5,0000.0,0019.91,0004.89,0003.24
2022-06-22 20:33:00,,0831.6,5.00,0.00,29.2,28.3,00.0,37.8,31.2,16.9,0000.0,0019.65,0004.92,0003.24
2022-06-22 20:34:00,,0831.6,5.00,0.00,29.2,27.8,00.0,37.8,31.1,17.0,0000.0,0019.68,0004.81,0003.24
2022-06-22 20:35:00,,0831.6,5.00,0.00,29.1,27.0,00.0,37.7,30.9,17.4,0000.0,0020.35,0004.81,0003.25
2022-06-22 20:36:00,,0831.6,5.00,0.00,29.0,26.9,00.0,37.7,30.8,17.5,0000.0,0019.53,0004.87,0003.26
2022-06-22 20:37:00,,0831.6,4.99,0.00,29.0,26.9,00.0,37.7,30.8,17.5,0000.0,0020.24,0004.94,0003.26
2022-06-22 20:38:00,,0831.6,5.02,0.00,29.0,27.0,00.0,37.7,30.8,18.0,0000.0,0019.57,0004.96,0003.25
2022-06-22 20:39:00,,0831.6,5.01,0.00,28.9,27.2,00.0,37.7,30.8,17.2,0000.0,0018.53,0005.02,0003.25
2022-06-22 20:40:00,,0831.6,5.00,0.00,28.9,27.4,00.0,37.7,30.8,16.9,0000.0,0018.24,0005.03,0003.25
2022-06-22 20:41:00,,0831.6,4.99,0.00,29.0,27.6,00.0,37.7,30.9,17.4,0000.0,0018.05,0005.03,0003.25
2022-06-22 20:42:00,,0831.6,4.99,0.00,29.0,27.7,00.0,37.7,30.9,18.2,0000.0,0019.91,0005.10,0003.26
2022-06-22 20:43:00,,0831.5,5.00,0.00,29.0,27.9,00.0,37.8,31.0,17.8,0000.0,0021.21,0005.09,0003.26
2022-06-22 20:44:00,,0831.5,5.00,0.00,29.0,28.0,00.0,37.8,31.0,16.9,0000.0,0021.30,0005.10,0003.26
2022-06-22 20:45:00,,0831.5,4.99,0.00,29.1,28.1,00.0,37.8,31.1,17.0,0000.0,0021.26,0005.09,0003.25
2022-06-22 20:46:00,,0831.5,5.00,0.00,29.1,28.2,00.0,37.8,31.1,17.4,0000.0,0020.39,0005.10,0003.24
2022-06-22 20:47:00,,0831.5,5.02,0.00,29.2,28.3,00.0,37.8,31.2,16.9,0000.0,0020.69,0005.08,0003.23
2022-06-22 20:48:00,,0831.5,5.00,0.00,29.2,28.0,00.0,37.8,31.1,16.6,0000.0,0022.92,0005.06,0003.24
2022-06-22 20:49:00,,0831.5,5.01,0.00,29.1,27.1,00.0,37.8,30.9,16.9,0000.0,0025.05,0005.09,0003.24
2022-06-22 20:50:00,,0831.6,5.00,0.00,29.0,26.7,00.0,37.7,30.7,17.4,0000.0,0026.56,0005.14,0003.24
2022-06-22 20:51:00,,0831.5,5.00,0.00,29.0,26.8,00.0,37.7,30.7,17.7,0000.0,0028.49,0005.26,0003.25
2022-06-22 20:52:00,,0831.5,5.00,0.00,28.9,26.9,00.0,37.7,30.7,18.2,0000.0,0028.88,0005.29,0003.25
2022-06-22 20:53:00,,0831.5,5.00,0.00,28.9,27.1,00.0,37.7,30.7,18.2,0000.0,0028.15,0005.29,0003.25
2022-06-22 20:54:00,,0831.5,4.99,0.00,28.9,27.3,00.0,37.7,30.8,18.0,0000.0,0026.44,0005.28,0003.24
2022-06-22 20:55:00,,0831.5,5.00,0.00,28.9,27.4,00.0,37.7,30.8,18.2,0000.0,0026.59,0005.23,0003.24
2022-06-22 20:56:00,,0831.5,5.00,0.00,29.0,27.6,00.0,37.7,30.9,18.3,0000.0,0027.28,0005.25,0003.24
2022-06-22 20:57:00,,0831.5,5.00,0.00,29.0,27.8,00.0,37.7,30.9,18.5,0000.0,0027.68,0005.27,0003.25
2022-06-22 20:58:00,,0831.5,5.00,0.00,29.0,27.9,00.0,37.8,31.0,18.6,0000.0,0028.42,0005.29,0003.27
2022-06-22 20:59:00,,0831.5,5.00,0.00,29.1,28.1,00.0,37.8,31.0,18.6,0000.0,0026.24,0005.32,0003.27
